Other Public Products
Issued by NWS Grand Forks, ND

Home | Current Version | Previous Version | Text Only | Print | Product List | Glossary On
Versions: 1 2 3 4 5 6 7 8 9 10 11 12 13 14 15 16 17 18 19 20 21 22 23 24 25 26 27 28 29 30 31 32 33 34 35 36 37 38 39 40 41 42 43 44 45 46 47 48 49 50
000
FPUS83 KFGF 230731
OPUFGF
PRAIRIE TO PINES WEATHER ROUNDUP
NATIONAL WEATHER SERVICE EASTERN NORTH DAKOTA/GRAND FORKS ND
200 AM CDT MON OCT 23 2017

 **SATELLITE DATA USED TO AUGMENT SKY COVER AT AUTOMATED STATIONS**
 *****  WEATHER ACROSS EASTERN NORTH DAKOTA  *****

CITY           SKY/WX    TMP DP  RH WIND       PRES   REMARKS
GRAND FORKS    LGT RAIN  56  48  74 W21G30    29.57R
GRAND FORKS AF FAIR      54  46  76 W14       29.58R
GRAND CITY NWS NOT AVBL
BUXTON           N/A     54  49  83 W12         N/A
DEVILS LAKE    FAIR      51  36  56 W21G26    29.63R
FARGO          FAIR      50  40  68 SW8       29.63F
WAHPETON ARPT  NOT AVBL
$$

 *****  WEATHER ACROSS CENTRAL AND WESTERN NORTH DAKOTA  *****

CITY           SKY/WX    TMP DP  RH WIND       PRES   REMARKS
JAMESTOWN      CLOUDY    54  40  59 W22G30    29.68R
BISMARCK       FAIR      52  40  63 NW15      29.79R
MINOT          FAIR      49  33  54 W24G30    29.73R
MINOT AFB      FAIR      46  34  62 NW21G31   29.71R
GARRISON         N/A     47  35  63 NW16      29.77R
WILLISTON        N/A    N/A N/A N/A MISG      29.87R
DICKINSON      CLOUDY    47  36  65 W29G41    29.86R
HETTINGER      FAIR      45  35  68 W20G30    29.93R
$$

 *****  OTHER OBSERVATIONS NORTHEAST NORTH DAKOTA  *****

CITY           SKY/WX    TMP DP  RH WIND       PRES   REMARKS
WALHALLA       FAIR     N/A N/A N/A W13G21    29.53R
LANGDON        NOT AVBL
CAVALIER       FAIR      54  41  62 W17       29.52R
GRAFTON        NOT AVBL
CANDO          FAIR      46  37  71 W22G31    29.64R
FORT TOTTEN      N/A     52  36  55 NW10      29.95S
ROLLA          FAIR      46  36  66 NW26      29.62R
RUGBY          NOT AVBL
 ***** THE ABOVE OBSERVATIONS ARE NON NWS ARE NOT QUALITY
        CONTROLLED AND MAY MIS-REPORT RAIN FOR SNOW...
$$

 *****  OTHER OBSERVATIONS SOUTHEAST NORTH DAKOTA *****

CITY           SKY/WX    TMP DP  RH WIND       PRES   REMARKS
COOPERSTOWN    PTSUNNY   52  45  76 W22G29    29.65R
VALLEY CITY    NOT AVBL
OAKES          NOT AVBL
GWINNER        SUNNY     57  41  54 W16G22    29.71R
SHEYENNE NWR     N/A     56  39  53 W9        29.95S
BUFFALO          N/A     54  40  59 E14         N/A
WYNDMERE       NOT AVBL
 ***** THE ABOVE OBSERVATIONS ARE NON NWS ARE NOT QUALITY
       CONTROLLED AND MAY MIS-REPORT RAIN FOR SNOW...
$$

  *****  WEATHER ACROSS NORTHERN MINNESOTA  *****

CITY           SKY/WX    TMP DP  RH WIND       PRES   REMARKS
FLAG ISLAND    CLOUDY    52  45  76 S9        29.55F
WARROAD        MOCLDY    48  39  71 S8        29.55F
ROSEAU         FAIR      50  37  62 S10       29.54F
HALLOCK        FAIR      48  39  71 SW8       29.52S
THF RVR FALLS  LGT RAIN  52  44  74 S13       29.59R
HALSTAD          N/A     48  43  81 SW6         N/A
FOSSTON        LGT RAIN  48  43  81 S10       29.63F
BAUDETTE       FAIR      50  35  56 S8        29.59F
WASKISH        FAIR      54  36  50 S6        29.62S
CROOKSTON      LGT RAIN  52  48  87 W13       29.61R
$$
  *****  WEATHER ACROSS CENTRAL AND WEST MINNESOTA  *****

CITY           SKY/WX    TMP DP  RH WIND       PRES   REMARKS
BEMIDJI        FAIR      53  33  47 S8        29.64S
PARK RAPIDS    MOCLDY    52  37  56 SW8       29.67F
WADENA         DRIZZLE   55  37  50 SW10      29.68S
DETROIT LAKES  FAIR      54  41  62 SW8       29.65F
MOORHEAD       FAIR      54  37  54 SW7       29.65R
FERGUS FALLS   FAIR      55  39  54 SW10      29.69S
ELBOW LAKE     PTSUNNY   55  38  53 W14       29.72S
MORRIS MN      CLOUDY    54  37  54 SW10      29.73S
STAPLES        FAIR      52  34  50 S9        29.70F
WHEATON        FAIR      61  39  44 SW16G26   29.72F
$$
  *****  WEATHER ELSEWHERE ACROSS MINNESOTA  *****

CITY           SKY/WX    TMP DP  RH WIND       PRES   REMARKS
DULUTH         LGT RAIN  52  34  50 S15       29.77F
INTRNTL FALLS  CLOUDY    53  34  48 S5        29.63F
ELY            CLOUDY    52  30  43 S10       29.73F
CLOQUET        FAIR      54  30  40 S8        29.76F
BRAINERD       MOCLDY    54  34  46 S15       29.73F
HIBBING        CLOUDY    51  31  46 S7G20     29.72F
ALEXANDRIA     CLOUDY    54  36  50 S13       29.74F
SAINT CLOUD    MOCLDY    52  37  56 S8        29.79S
MINNEAPOLIS    CLOUDY    56  35  45 S7        29.85S
$$

  *****  WEATHER ACROSS SOUTH DAKOTA  *****

CITY           SKY/WX    TMP DP  RH WIND       PRES   REMARKS
SIOUX FALLS    FAIR      52  35  52 SW5       29.80F
BROOKINGS      CLOUDY    51  35  54 S8        29.81S
WATERTOWN      MOCLDY    52  38  58 W7        29.78S
HURON          FAIR      53  40  61 NW12      29.83R
SISSETON         N/A     60  45  57 W18G43    29.71F
ABERDEEN       FAIR      52  46  80 W13       29.78R
MITCHELL       FAIR      48  37  65 W7        29.84R
PIERRE         FAIR      54  45  71 W13       29.90R
MOBRIDGE       FAIR      51  42  71 W12       29.83R
RAPID CITY     MOCLDY    54  23  30 NW33G43   30.03R
$$

  *****  SOME WEATHER IN NEARBY STATES *****

CITY           SKY/WX    TMP DP  RH WIND       PRES   REMARKS
GLASGOW MT     FAIR      43  37  79 W13       30.00R
GREAT FALLS MT FAIR      45  23  42 W24G36    30.19R
CHEYENNE WY    FAIR      54  28  36 NW25G45   30.20R
SCOTTSBLUFF NE FAIR      56  32  40 N24G33    30.11R
OMAHA NE       FAIR      47  36  65 SE7       29.93F
DES MOINES IA  FAIR      47  42  83 S8        29.97F
DAVENPORT IA   FAIR      48  47  96 CALM      30.02F FOG
CHICAGO IL     LGT RAIN  52  50  93 N8        29.97F
EAU CLAIRE WI  FAIR      48  41  76 S10       29.90F
LA CROSSE WI   FAIR      48  44  86 SE10      29.96F
$$

  *****  SOME NATIONAL WEATHER *****

CITY           SKY/WX    TMP DP  RH WIND       PRES   REMARKS
LA GUARDIA NY  MOCLDY    62  59  90 SE5       30.32F
RALEIGH NC     MOCLDY    63  62  97 E5        30.23F
ATLANTA GA     LGT RAIN  68  68 100 E12       30.03F FOG
NEW ORLEANS LA FAIR      65  63  93 NW9       30.02F
OKLAHOMA CITY  FAIR      47  39  74 S6        30.10F
ALBUQUERQUE NM FAIR      52  24  33 S3        30.38R
SALT LAKE CITY MOCLDY    54  36  50 S3        30.41R
LOS ANGELES CA FAIR      70  53  54 E3        30.06F
BOISE ID       FAIR      46  44  93 CALM      30.46R
SEATTLE WA     FAIR      51  48  89 SE5       30.47R
$$

*** WEATHER ACROSS MANITOBA...SASKATCHEWAN AND ONTARIO ***
                ***ONTARIO***

CITY           SKY/WX    TMP DP  RH WIND       PRES   REMARKS
GERALDTON      PTCLDY    41  39  93 S6        29.81F
THUNDER BAY    CLOUDY    41  39  93 VRB2      29.82F
SIOUX LOOKOUT  CLOUDY    50  36  57 S6        29.63F
TORONTO        MOCLDY    61  54  77 SE5       30.07S
BIG TROUT LK   CLOUDY    43  37  81 SW13G21   29.49R
PICKLE LAKE    NOT AVBL
DRYDEN         CLOUDY    50  36  57 S12       29.60F
KENORA         CLOUDY    50  39  66 S9        29.57S
$$
                *** MANITOBA***

CITY           SKY/WX    TMP DP  RH WIND       PRES   REMARKS
BRANDON        LGT RAIN  41  37  87 N9        29.63R
DAUPHIN        CLOUDY    43  37  81 N13G18    29.67R
ISLAND LAKE    CLOUDY    39  34  81 W14G23    29.52R
PILOT MOUND      N/A     46  36  66 W14G21      N/A
THE PAS        CLOUDY    37  30  75 W13       29.66R
THOMPSON       MOCLDY    32  30  93 W9        29.51R WCI  24
WINNIPEG       MOCLDY    43  39  87 CALM      29.53R
LYNN LAKE      CLOUDY    30  28  93 NW16G25   29.56R WCI  19
CHURCHILL      LGT SNOW  32  30  93 NW39G55   29.08R BLWGSNOWWCI  16
GILLAM         FLURRIES  34  30  86 NW21G36   29.35  WCI  22
$$
                ***SASKATCHEWAN***

CITY           SKY/WX    TMP DP  RH WIND       PRES   REMARKS
ESTEVAN        PTCLDY    37  34  87 W14       29.80R
KINDERSLEY     MOCLDY    32  28  86 SW8       29.93R WCI  25
LLOYDMINSTER   PTCLDY    37  36  93 W14       29.84R
PRINCE ALBERT  FOG       34  32  93 W6        29.80R VSB 3/4
REGINA         LGT RAIN  39  37  93 W13       29.84R
YORKTON        CLEAR     36  34  93 NW12      29.73R



USA.gov is the U.S. government's official web portal to all federal, state and local government web resources and services.